Location: Newark
(7.1028°S, 35.3258°W)
Time: 22:48:33
(UTC+00:00)

S-56A Canister/Altair - Visible Passes

Search period start: 17 February 2020 00:00
Search period end: 27 February 2020 00:00
Orbit: 633 x 2499 km, 38.9° (Epoch: 17 February)

Date Brightness Start Highest point End Pass type
(mag) Time Alt. Az. Time Alt. Az. Time Alt. Az.
17 Feb 10.0 22:37:45 10° NNW 22:39:25 15° N 22:39:25 15° N visible
18 Feb 9.5 22:05:00 10° NNW 22:09:13 20° NNE 22:09:13 20° NNE visible
19 Feb 9.4 21:32:12 10° N 21:37:15 18° NNE 21:39:05 16° NE visible
19 Feb 10.3 23:35:31 10° NW 23:36:34 14° NW 23:36:34 14° NW visible
20 Feb 10.7 08:01:11 10° SSW 08:07:34 25° SE 08:16:09 10° E visible
20 Feb 9.7 20:59:25 10° N 21:04:15 16° NNE 21:08:11 10° ENE visible
20 Feb 9.1 23:02:17 10° NW 23:06:29 35° NW 23:06:29 35° NW visible
21 Feb 10.7 07:29:17 10° S 07:34:36 20° SE 07:41:25 10° E visible
21 Feb 7.8 22:29:01 10° NW 22:36:25 72° NNE 22:36:25 72° NNE visible
22 Feb 10.7 06:57:42 10° S 07:01:39 15° SE 07:06:25 10° ESE visible
22 Feb 8.1 21:55:44 10° NW 22:03:55 60° NE 22:06:22 35° ESE visible
23 Feb 10.7 00:03:37 10° W 00:03:52 11° W 00:03:52 11° W visible
23 Feb 10.9 06:27:06 10° SSE 06:28:44 11° SE 06:30:30 10° SE visible
23 Feb 8.5 21:22:25 10° NW 21:31:05 51° NE 21:36:19 13° ESE visible
23 Feb 9.8 23:29:42 10° W 23:33:50 23° WSW 23:33:50 23° WSW visible
24 Feb 9.7 07:53:23 10° SSW 08:00:19 50° SE 08:10:43 10° ENE visible
24 Feb 8.9 20:49:05 10° NNW 20:58:10 44° NE 21:04:18 10° ESE visible
24 Feb 9.3 22:55:52 10° WNW 23:02:21 32° SW 23:03:45 29° SSW visible
25 Feb 9.8 07:21:11 10° SSW 07:27:28 40° SE 07:36:39 10° ENE visible
25 Feb 9.1 22:22:05 10° WNW 22:29:42 42° SW 22:33:37 18° SSE visible
26 Feb 10.0 06:49:04 10° SSW 06:54:41 32° SE 07:02:33 10° ENE visible
26 Feb 9.0 21:48:20 10° WNW 21:57:01 54° SW 22:02:50 10° SE visible
